N1JOT Weather Reports


Display with metric or nautical units.
time (UTC)temp
F
wind
direction
speed
MPH
gust
MPH
rain 1hr
in
rain 24hr
in
rain mn
in
humidity
%
barometer
mb
20260506073102 56 215 2.0 8.0 0.00 0.00 0.00 85 1012.0
20260506072557 56 211 2.0 7.0 0.00 0.00 0.00 85 1012.0
20260506072100 56 144 2.0 7.0 0.00 0.00 0.00 85 1012.0
20260506071559 56 0 2.0 7.0 0.00 0.00 0.00 84 1012.0
20260506071059 56 180 2.0 6.0 0.00 0.00 0.00 84 1011.9
20260506070602 56 146 2.0 5.0 0.00 0.00 0.00 84 1012.0
20260506062059 57 111 2.0 10.0 0.00 0.00 0.00 82 1012.0
20260506061603 57 161 1.0 6.0 0.00 0.00 0.00 82 1012.0
20260506061057 57 220 2.0 6.0 0.00 0.00 0.00 82 1012.0
20260506060601 57 169 2.0 7.0 0.00 0.00 0.00 82 1012.0
20260506051059 57 167 2.0 8.0 0.00 0.00 0.00 81 1012.4
20260506050603 56 207 1.0 8.0 0.00 0.00 0.00 81 1012.5
20260506050111 56 0 1.0 8.0 0.00 0.00 0.00 81 1012.5
20260506045101 56 176 1.0 7.0 0.00 0.00 0.00 81 1012.7
20260506044601 56 170 2.0 7.0 0.00 0.00 0.00 81 1012.8
20260506044100 57 167 1.0 5.0 0.00 0.00 0.00 80 1012.8
20260506043600 57 182 2.0 7.0 0.00 0.00 0.00 80 1012.8
20260506043105 57 77 2.0 7.0 0.00 0.00 0.00 80 1012.9
20260506042600 57 171 2.0 5.0 0.00 0.00 0.00 80 1012.7
20260506042100 57 167 1.0 12.0 0.00 0.00 0.00 80 1012.7
20260506041600 57 126 2.0 12.0 0.00 0.00 0.00 79 1012.8
20260506041059 57 0 1.0 10.0 0.00 0.00 0.00 79 1012.6
20260506040559 57 222 2.0 10.0 0.00 0.00 0.00 79 1012.7
20260506040107 57 168 1.0 10.0 0.00 0.00 0.00 79 1012.6
20260506035559 57 202 2.0 9.0 0.00 0.00 0.00 78 1012.6
20260506035059 57 169 1.0 6.0 0.00 0.00 0.00 78 1012.5
20260506034605 57 0 3.0 6.0 0.00 0.00 0.00 77 1012.5
20260506034059 57 119 2.0 7.0 0.00 0.00 0.00 77 1012.6
20260506033600 57 103 1.0 7.0 0.00 0.00 0.00 77 1012.6
20260506033100 57 0 3.0 6.0 0.00 0.00 0.00 77 1012.5
20260506032602 57 195 1.0 6.0 0.00 0.00 0.00 76 1012.5
20260506032100 57 181 1.0 6.0 0.00 0.00 0.00 76 1012.5
20260506031600 57 219 1.0 9.0 0.00 0.00 0.00 76 1012.5
20260506031100 57 126 1.0 9.0 0.00 0.00 0.00 75 1012.7
20260506030559 57 130 2.0 10.0 0.00 0.00 0.00 75 1012.6
20260506030059 57 288 2.0 10.0 0.00 0.00 0.00 75 1012.7
20260506025600 57 5 1.0 5.0 0.00 0.00 0.00 75 1012.7
20260506025100 57 0 0.0 9.0 0.00 0.00 0.00 75 1012.5
20260506024601 57 0 1.0 9.0 0.00 0.00 0.00 74 1012.5
20260506024059 57 171 2.0 9.0 0.00 0.00 0.00 74 1012.5
20260506023557 57 171 2.0 6.0 0.00 0.00 0.00 74 1012.5
20260506023103 57 211 2.0 6.0 0.00 0.00 0.00 74 1012.5
20260506022600 57 216 1.0 9.0 0.00 0.00 0.00 74 1012.5
20260506022100 57 173 0.0 10.0 0.00 0.00 0.00 75 1012.5
20260506021607 57 106 2.0 10.0 0.00 0.00 0.00 75 1012.5
20260506021100 57 163 1.0 8.0 0.00 0.00 0.00 75 1012.4
20260506020600 57 0 2.0 8.0 0.00 0.00 0.00 75 1012.5
20260506015604 57 182 1.0 7.0 0.00 0.00 0.00 74 1012.4
20260506015100 57 164 1.0 6.0 0.00 0.00 0.00 74 1012.5
20260506014601 57 143 2.0 7.0 0.00 0.00 0.00 74 1012.5
20260506014103 57 73 2.0 8.0 0.00 0.00 0.00 74 1012.3
20260506013600 57 105 2.0 8.0 0.00 0.00 0.00 74 1012.4
20260506013106 57 205 1.0 5.0 0.00 0.00 0.00 75 1012.3
20260506012600 57 248 0.0 5.0 0.00 0.00 0.00 75 1012.3
20260506012100 57 192 0.0 4.0 0.00 0.00 0.00 74 1012.3
20260506011606 57 164 0.0 4.0 0.00 0.00 0.00 74 1012.2
20260506011103 57 98 0.0 4.0 0.00 0.00 0.00 74 1012.1
20260506010600 57 184 0.0 6.0 0.00 0.00 0.00 74 1012.2
20260506010100 57 0 1.0 6.0 0.00 0.00 0.00 74 1012.1
20260506005603 57 186 1.0 6.0 0.00 0.00 0.00 74 1012.1
20260506005100 57 206 0.0 6.0 0.00 0.00 0.00 75 1012.1
20260506004603 57 142 1.0 6.0 0.00 0.00 0.00 75 1012.1
20260506004100 57 0 1.0 6.0 0.00 0.00 0.00 75 1012.0
20260506003604 57 171 0.0 6.0 0.00 0.00 0.00 75 1011.9
20260506003101 57 176 1.0 6.0 0.00 0.00 0.00 74 1011.8
20260506002600 57 0 1.0 6.0 0.00 0.00 0.00 74 1011.7
20260506002100 57 173 1.0 5.0 0.00 0.00 0.00 74 1011.6
20260506001603 57 174 1.0 4.0 0.00 0.00 0.00 74 1011.5
20260506001100 57 160 1.0 9.0 0.00 0.00 0.00 74 1011.4
20260506000601 57 196 0.0 9.0 0.00 0.00 0.00 74 1011.3
20260506000100 57 167 0.0 7.0 0.00 0.00 0.00 73 1011.1
20260505235600 58 153 2.0 8.0 0.00 0.00 0.00 73 1011.1
20260505235100 58 0 2.0 10.0 0.00 0.00 0.00 73 1011.1
20260505234608 58 94 1.0 10.0 0.00 0.00 0.00 72 1011.0
20260505234100 58 163 2.0 10.0 0.00 0.00 0.00 72 1010.9
20260505233559 58 180 1.0 7.0 0.00 0.00 0.00 72 1010.7
20260505233059 58 59 1.0 10.0 0.00 0.00 0.00 72 1010.7
20260505232559 59 85 3.0 10.0 0.00 0.00 0.00 71 1010.5
20260505232100 59 209 3.0 10.0 0.00 0.00 0.00 71 1010.4
20260505231608 59 290 2.0 12.0 0.00 0.00 0.00 71 1010.3
20260505231058 59 155 2.0 12.0 0.00 0.00 0.00 71 1010.2
20260505230603 59 229 1.0 12.0 0.00 0.00 0.00 70 1010.0
20260505230059 59 275 3.0 12.0 0.00 0.00 0.00 70 1009.9
20260505225557 60 200 4.0 14.0 0.00 0.00 0.00 70 1010.0
20260505225057 60 200 3.0 16.0 0.00 0.00 0.00 69 1010.0
20260505224600 60 183 5.0 16.0 0.00 0.00 0.00 69 1010.2
20260505224059 60 202 1.0 6.0 0.00 0.00 0.00 69 1010.1
20260505223558 60 0 1.0 9.0 0.00 0.00 0.00 69 1010.1
20260505223106 61 239 2.0 9.0 0.00 0.00 0.00 68 1010.1
20260505222600 61 186 2.0 12.0 0.00 0.00 0.00 68 1010.0
20260505222101 62 194 3.0 13.0 0.00 0.00 0.00 67 1009.9
20260505221602 62 208 4.0 13.0 0.00 0.00 0.00 66 1010.0
20260505221100 62 329 2.0 11.0 0.00 0.00 0.00 66 1010.0
20260505220600 63 0 2.0 14.0 0.00 0.00 0.00 66 1009.9
20260505220058 63 121 5.0 14.0 0.00 0.00 0.00 65 1009.7
20260505215600 64 219 2.0 10.0 0.00 0.00 0.00 64 1009.7
20260505215102 64 105 2.0 10.0 0.00 0.00 0.00 64 1009.5
20260505214617 64 0 2.0 12.0 0.00 0.00 0.00 64 1009.6
20260505214056 64 232 3.0 14.0 0.00 0.00 0.00 63 1009.6
20260505213601 64 0 2.0 15.0 0.00 0.00 0.00 64 1009.6
20260505213105 64 120 3.0 16.0 0.00 0.00 0.00 63 1009.7
20260505212601 64 186 4.0 16.0 0.00 0.00 0.00 63 1009.6
20260505212057 65 182 4.0 11.0 0.00 0.00 0.00 62 1009.5
20260505211607 65 158 1.0 12.0 0.00 0.00 0.00 62 1009.4
20260505211057 65 194 3.0 13.0 0.00 0.00 0.00 62 1009.5
20260505210559 65 46 4.0 13.0 0.00 0.00 0.00 61 1009.3
20260505205601 66 126 4.0 16.0 0.00 0.00 0.00 61 1009.3
20260505205101 66 261 2.0 13.0 0.00 0.00 0.00 61 1009.4
20260505204600 66 201 2.0 13.0 0.00 0.00 0.00 61 1009.4
20260505204100 66 23 4.0 15.0 0.00 0.00 0.00 61 1009.6
20260505203601 66 200 3.0 15.0 0.00 0.00 0.00 62 1009.7
20260505203100 67 192 3.0 10.0 0.00 0.00 0.00 61 1009.5
20260505202559 67 232 2.0 10.0 0.00 0.00 0.00 61 1009.6
20260505202059 67 195 3.0 11.0 0.00 0.00 0.00 60 1009.6
20260505201558 68 194 3.0 12.0 0.00 0.00 0.00 60 1009.7
20260505201057 68 130 4.0 12.0 0.00 0.00 0.00 57 1009.6
20260505200600 69 5 2.0 10.0 0.00 0.00 0.00 57 1009.5
20260505200106 69 104 1.0 15.0 0.00 0.00 0.00 58 1009.4
20260505195559 68 290 5.0 19.0 0.00 0.00 0.00 58 1009.4
20260505195100 69 132 5.0 19.0 0.00 0.00 0.00 57 1009.4
20260505194600 69 0 3.0 12.0 0.00 0.00 0.00 57 1009.7
20260505194101 69 169 4.0 12.0 0.00 0.00 0.00 56 1009.6
20260505193604 70 177 4.0 12.0 0.00 0.00 0.00 55 1009.8
20260505193101 71 223 3.0 10.0 0.00 0.00 0.00 53 1009.7
20260505192600 72 216 2.0 10.0 0.00 0.00 0.00 53 1009.6
20260505192100 72 0 4.0 9.0 0.00 0.00 0.00 53 1009.5
20260505191558 72 313 3.0 12.0 0.00 0.00 0.00 53 1009.5
20260505191100 71 153 4.0 16.0 0.00 0.00 0.00 54 1009.5
20260505190600 72 197 3.0 16.0 0.00 0.00 0.00 54 1009.6
20260505190058 72 207 3.0 13.0 0.00 0.00 0.00 51 1009.7
20260505185600 74 127 1.0 11.0 0.00 0.00 0.00 51 1009.7
20260505185100 73 231 2.0 11.0 0.00 0.00 0.00 50 1009.7
20260505184600 74 198 2.0 7.0 0.00 0.00 0.00 50 1009.7
20260505184100 75 121 1.0 6.0 0.00 0.00 0.00 51 1009.8
20260505183559 75 189 2.0 13.0 0.00 0.00 0.00 50 1009.8
20260505183106 74 167 2.0 13.0 0.00 0.00 0.00 50 1009.7
20260505182600 73 0 2.0 11.0 0.00 0.00 0.00 50 1009.8
20260505182102 73 215 2.0 10.0 0.00 0.00 0.00 52 1009.8
20260505181600 73 146 3.0 14.0 0.00 0.00 0.00 53 1010.0
20260505181100 72 192 4.0 14.0 0.00 0.00 0.00 51 1009.8
20260505180600 73 224 3.0 11.0 0.00 0.00 0.00 50 1010.0
20260505180105 74 211 1.0 8.0 0.00 0.00 0.00 52 1010.0
20260505175600 73 188 2.0 8.0 0.00 0.00 0.00 51 1010.1
20260505175100 73 312 3.0 16.0 0.00 0.00 0.00 50 1010.3
20260505174605 72 222 4.0 16.0 0.00 0.00 0.00 53 1010.4
20260505174059 72 181 2.0 15.0 0.00 0.00 0.00 53 1010.6
20260505173600 72 221 5.0 15.0 0.00 0.00 0.00 53 1010.6
20260505173058 73 246 1.0 14.0 0.00 0.00 0.00 53 1010.7
20260505172556 72 150 2.0 9.0 0.00 0.00 0.00 52 1010.6
20260505172100 73 207 2.0 12.0 0.00 0.00 0.00 54 1010.6
20260505171600 72 132 3.0 12.0 0.00 0.00 0.00 55 1010.6
20260505171104 71 213 4.0 12.0 0.00 0.00 0.00 54 1010.6
20260505170600 72 258 2.0 7.0 0.00 0.00 0.00 53 1010.7
20260505170059 72 183 2.0 7.0 0.00 0.00 0.00 54 1010.6
20260505165600 72 120 2.0 9.0 0.00 0.00 0.00 55 1010.7
20260505165101 71 0 2.0 10.0 0.00 0.00 0.00 55 1010.7
20260505164605 71 194 3.0 11.0 0.00 0.00 0.00 57 1010.9
20260505164057 71 152 3.0 11.0 0.00 0.00 0.00 56 1010.9
20260505163557 71 201 2.0 7.0 0.00 0.00 0.00 55 1011.0
20260505163100 72 225 2.0 7.0 0.00 0.00 0.00 54 1011.0
20260505162600 71 129 2.0 8.0 0.00 0.00 0.00 58 1011.0
20260505162100 71 176 2.0 8.0 0.00 0.00 0.00 56 1011.0
20260505161606 72 190 1.0 12.0 0.00 0.00 0.00 56 1011.0
20260505161100 70 224 2.0 12.0 0.00 0.00 0.00 57 1011.1
20260505160602 72 197 2.0 7.0 0.00 0.00 0.00 55 1011.1
20260505153108 74 0 1.0 6.0 0.00 0.00 0.00 53 1011.0
20260505152557 73 67 0.0 6.0 0.00 0.00 0.00 54 1011.0
20260505152059 72 180 1.0 6.0 0.00 0.00 0.00 55 1011.0
20260505151611 71 238 1.0 5.0 0.00 0.00 0.00 56 1011.1
20260505151059 71 244 0.0 6.0 0.00 0.00 0.00 58 1011.1
20260505150600 70 268 1.0 7.0 0.00 0.00 0.00 59 1011.0
20260505140600 66 0 1.0 6.0 0.00 0.00 0.00 64 1011.4
20260505140115 66 162 1.0 6.0 0.00 0.00 0.00 65 1011.3
20260505124609 60 0 1.0 7.0 0.00 0.00 0.00 73 1011.7
20260505124102 60 178 0.0 6.0 0.00 0.00 0.00 74 1011.7
20260505123600 59 186 2.0 6.0 0.00 0.00 0.00 73 1011.7
20260505123058 59 198 0.0 7.0 0.00 0.00 0.00 74 1011.8
20260505122601 59 0 1.0 8.0 0.00 0.00 0.00 75 1011.6
20260505122101 58 175 2.0 8.0 0.00 0.00 0.00 75 1011.5
20260505121601 58 180 1.0 6.0 0.00 0.00 0.00 75 1011.5
20260505121100 58 161 1.0 6.0 0.00 0.00 0.00 75 1011.4
20260505120600 58 67 0.0 5.0 0.00 0.00 0.00 77 1011.4
20260505120104 57 180 1.0 5.0 0.00 0.00 0.00 77 1011.6
20260505115604 57 182 1.0 8.0 0.00 0.00 0.00 78 1011.5
20260505115100 56 0 1.0 8.0 0.00 0.00 0.00 79 1011.5
20260505114605 56 172 0.0 4.0 0.00 0.00 0.00 79 1011.5
20260505114101 56 209 0.0 4.0 0.00 0.00 0.00 80 1011.5
20260505113600 55 153 0.0 8.0 0.00 0.00 0.00 81 1011.5
20260505113123 55 225 1.0 8.0 0.00 0.00 0.00 82 1011.5
20260505112600 55 101 2.0 6.0 0.00 0.00 0.00 82 1011.4
20260505112100 54 0 2.0 6.0 0.00 0.00 0.00 83 1011.5
20260505111605 54 0 2.0 7.0 0.00 0.00 0.00 85 1011.3
20260505111059 53 190 1.0 7.0 0.00 0.00 0.00 86 1011.5
20260505110559 53 0 0.0 0.0 0.00 0.00 0.00 87 1011.4
20260505102134 49 0 0.0 3.0 0.00 0.00 0.00 92 1011.2
20260505101600 48 0 0.0 3.0 0.00 0.00 0.00 92 1011.1
20260505101100 48 0 0.0 3.0 0.00 0.00 0.00 92 1011.0
20260505100600 48 0 0.0 0.0 0.00 0.00 0.00 92 1011.1
20260505100100 48 0 0.0 0.0 0.00 0.00 0.00 91 1011.1
20260505095600 48 0 0.0 0.0 0.00 0.00 0.00 92 1011.1
20260505095058 48 0 0.0 0.0 0.00 0.00 0.00 92 1011.1
20260505094559 47 0 0.0 0.0 0.00 0.00 0.00 91 1011.1
20260505094059 48 0 0.0 0.0 0.00 0.00 0.00 91 1011.2
20260505093600 48 0 0.0 0.0 0.00 0.00 0.00 91 1011.2
20260505093102 48 0 0.0 0.0 0.00 0.00 0.00 91 1011.2
20260505092559 48 0 0.0 0.0 0.00 0.00 0.00 91 1011.3
20260505092100 47 0 0.0 0.0 0.00 0.00 0.00 91 1011.5
20260505091608 48 0 0.0 0.0 0.00 0.00 0.00 91 1011.4
20260505091102 48 0 0.0 0.0 0.00 0.00 0.00 91 1011.4
20260505090559 47 0 0.0 0.0 0.00 0.00 0.00 91 1011.5
20260505090059 47 0 0.0 0.0 0.00 0.00 0.00 91 1011.5
20260505085600 47 0 0.0 1.0 0.00 0.00 0.00 91 1011.4
20260505085058 47 0 0.0 1.0 0.00 0.00 0.00 91 1011.5
20260505084559 47 0 0.0 1.0 0.00 0.00 0.00 91 1011.5
20260505084100 47 0 0.0 1.0 0.00 0.00 0.00 91 1011.5
20260505083559 47 0 0.0 1.0 0.00 0.00 0.00 91 1011.5
20260505083103 47 0 0.0 0.0 0.00 0.00 0.00 91 1011.6
20260505082558 47 0 0.0 0.0 0.00 0.00 0.00 91 1011.5
20260505082058 47 0 0.0 0.0 0.00 0.00 0.00 90 1011.5
20260505081607 47 0 0.0 0.0 0.00 0.00 0.00 90 1011.5
20260505081058 48 0 0.0 0.0 0.00 0.00 0.00 90 1011.3
20260505080558 48 0 0.0 0.0 0.00 0.00 0.00 90 1011.4
20260505075601 48 0 0.0 2.0 0.00 0.00 0.00 90 1011.6
20260505075059 48 0 0.0 2.0 0.00 0.00 0.00 90 1011.6
20260505074559 48 184 0.0 2.0 0.00 0.00 0.00 90 1011.6
20260505074058 48 0 0.0 2.0 0.00 0.00 0.00 90 1011.6
20260505073558 47 180 0.0 2.0 0.00 0.00 0.00 89 1011.6